TimeCDT,TemperatureF,Dew PointF,Humidity,Sea Level PressureIn,VisibilityMPH,Wind Direction,Wind SpeedMPH,Gust SpeedMPH,PrecipitationIn,Events,Conditions,WindDirDegrees,DateUTC
12:55 AM,54.0,50.0,86,29.84,10.0,West,3.5,-,N/A,,Clear,280,2012-10-02 05:55:00
1:55 AM,54.1,48.4,81,29.85,3.0,NW,8.1,-,N/A,,Haze,320,2012-10-02 06:55:00
2:55 AM,53.4,45.1,74,29.85,10.0,NNW,8.1,-,N/A,,Clear,330,2012-10-02 07:55:00
3:55 AM,52.5,43.3,71,29.86,10.0,NNW,8.1,-,N/A,,Clear,330,2012-10-02 08:55:00
4:55 AM,52.0,43.0,71,29.86,10.0,NNW,8.1,-,N/A,,Clear,330,2012-10-02 09:55:00
5:55 AM,51.4,43.2,73,29.87,10.0,NW,6.9,-,N/A,,Clear,320,2012-10-02 10:55:00
6:55 AM,50.7,43.2,75,29.89,10.0,NNW,9.2,-,N/A,,Clear,330,2012-10-02 11:55:00
7:55 AM,50.5,43.3,76,29.91,10.0,NNW,8.1,-,N/A,,Clear,330,2012-10-02 12:55:00
8:55 AM,54.0,44.4,70,29.91,10.0,North,10.4,-,N/A,,Clear,350,2012-10-02 13:55:00
9:55 AM,58.5,47.5,67,29.92,10.0,North,8.1,-,N/A,,Clear,360,2012-10-02 14:55:00
10:55 AM,61.9,48.7,62,29.93,10.0,North,8.1,-,N/A,,Clear,10,2012-10-02 15:55:00
11:55 AM,65.5,49.6,57,29.92,10.0,North,4.6,-,N/A,,Clear,10,2012-10-02 16:55:00
12:55 PM,68.9,50.7,52,29.91,10.0,Calm,Calm,-,N/A,,Clear,0,2012-10-02 17:55:00
1:55 PM,71.2,49.8,47,29.88,10.0,Variable,4.6,-,N/A,,Clear,0,2012-10-02 18:55:00
2:55 PM,73.2,50.9,45,29.86,10.0,Variable,4.6,-,N/A,,Clear,0,2012-10-02 19:55:00
3:55 PM,74.3,50.2,43,29.85,10.0,Variable,4.6,-,N/A,,Clear,0,2012-10-02 20:55:00
4:55 PM,74.1,50.2,43,29.85,10.0,NNW,6.9,-,N/A,,Clear,330,2012-10-02 21:55:00
5:55 PM,72.3,52.2,49,29.86,10.0,NW,4.6,-,N/A,,Clear,310,2012-10-02 22:55:00
6:39 PM,69.8,50.0,49,29.86,0.8,NW,4.6,-,N/A,,Haze,320,2012-10-02 23:39:00
6:40 PM,69.8,50.0,49,29.87,0.8,NW,3.5,-,N/A,,Haze,310,2012-10-02 23:40:00
6:49 PM,69.8,50.0,49,29.86,10.0,WNW,2.3,-,N/A,,Clear,300,2012-10-02 23:49:00
6:55 PM,66.2,51.8,60,29.86,10.0,WNW,2.3,-,N/A,,Clear,300,2012-10-02 23:55:00
7:55 PM,64.2,50.7,61,29.88,10.0,Calm,Calm,-,N/A,,Clear,0,2012-10-03 00:55:00
8:12 PM,60.8,51.8,72,29.88,10.0,SW,3.5,-,N/A,,Clear,220,2012-10-03 01:12:00
8:55 PM,61.5,51.3,69,29.89,10.0,Calm,Calm,-,N/A,,Clear,0,2012-10-03 01:55:00
9:55 PM,57.0,52.9,86,29.90,10.0,Calm,Calm,-,N/A,,Clear,0,2012-10-03 02:55:00
10:38 PM,55.4,53.6,94,29.91,2.0,SSW,4.6,-,N/A,,Clear,210,2012-10-03 03:38:00
10:55 PM,54.3,52.9,95,29.91,10.0,SSW,3.5,-,N/A,,Clear,210,2012-10-03 03:55:00
11:06 PM,55.4,53.6,94,29.91,2.0,Calm,Calm,-,N/A,,Clear,0,2012-10-03 04:06:00
11:55 PM,53.4,53.1,99,29.91,10.0,Calm,Calm,-,N/A,,Clear,0,2012-10-03 04:55:00